DW6440 Weather Reports


Display with metric or nautical units.
time (UTC)temp
F
wind
direction
speed
MPH
gust
MPH
rain 1hr
in
rain 24hr
in
rain mn
in
humidity
%
barometer
mb
20260503035420 47 283 3.0 9.0 0.00 0.00 0.00 65 1012.5
20260503034913 47 336 3.0 8.0 0.00 0.00 0.00 64 1012.4
20260503034408 48 284 3.0 9.0 0.00 0.00 0.00 64 1012.4
20260503034118 48 269 4.0 10.0 0.00 0.00 0.00 64 1012.4
20260503033615 48 315 3.0 10.0 0.00 0.00 0.00 64 1012.5
20260503033113 48 286 2.0 7.0 0.00 0.00 0.00 63 1012.6
20260503032344 48 302 3.0 6.0 0.00 0.00 0.00 64 1012.6
20260503031837 48 265 3.0 9.0 0.00 0.00 0.00 63 1012.6
20260503031554 49 281 3.0 9.0 0.00 0.00 0.00 63 1012.6
20260503030826 49 274 2.0 8.0 0.00 0.00 0.00 63 1012.6
20260503030535 49 310 3.0 11.0 0.00 0.00 0.00 63 1012.6
20260503030414 49 311 3.0 11.0 0.00 0.00 0.00 63 1012.6
20260503025314 49 310 3.0 8.0 0.00 0.00 0.00 63 1012.6
20260503024814 49 329 2.0 8.0 0.00 0.00 0.00 63 1012.6
20260503024318 49 286 2.0 8.0 0.00 0.00 0.00 62 1012.7
20260503023813 49 277 2.0 8.0 0.00 0.00 0.00 62 1012.6
20260503023310 50 292 3.0 10.0 0.00 0.00 0.00 61 1012.7
20260503022812 50 281 3.0 10.0 0.00 0.00 0.00 60 1012.6
20260503022311 50 287 4.0 10.0 0.00 0.00 0.00 60 1012.7
20260503021814 50 273 4.0 10.0 0.00 0.00 0.00 59 1012.6
20260503021536 50 300 4.0 12.0 0.00 0.00 0.00 58 1012.6
20260503020811 51 306 4.0 12.0 0.00 0.00 0.00 58 1012.6
20260503020540 51 320 3.0 9.0 0.00 0.00 0.00 58 1012.6
20260503020034 51 265 2.0 6.0 0.00 0.00 0.00 59 1012.6
20260503015310 50 297 2.0 8.0 0.00 0.00 0.00 59 1012.5
20260503014809 50 334 2.0 10.0 0.00 0.00 0.00 60 1012.5
20260503014310 50 288 1.0 10.0 0.00 0.00 0.00 60 1012.5
20260503014023 50 298 1.0 4.0 0.00 0.00 0.00 62 1012.4
20260503013258 50 301 1.0 3.0 0.00 0.00 0.00 60 1012.3
20260503013019 50 313 0.0 2.0 0.00 0.00 0.00 61 1012.3
20260503012301 50 314 0.0 2.0 0.00 0.00 0.00 61 1012.2
20260503011757 50 314 0.0 2.0 0.00 0.00 0.00 59 1012.3
20260503011257 50 314 0.0 0.0 0.00 0.00 0.00 59 1012.1
20260503010756 50 314 0.0 0.0 0.00 0.00 0.00 59 1012.1
20260503010301 50 314 0.0 0.0 0.00 0.00 0.00 57 1012.1
20260503005758 50 314 0.0 0.0 0.00 0.00 0.00 57 1012.1
20260503005257 50 314 0.0 0.0 0.00 0.00 0.00 57 1012.0
20260503005030 50 314 0.0 2.0 0.00 0.00 0.00 58 1011.9
20260503004258 50 314 1.0 2.0 0.00 0.00 0.00 57 1011.8
20260503003755 50 314 1.0 3.0 0.00 0.00 0.00 57 1011.8
20260503003255 51 314 1.0 3.0 0.00 0.00 0.00 58 1011.6
20260503002756 51 314 1.0 3.0 0.00 0.00 0.00 56 1011.7
20260503002300 51 314 1.0 3.0 0.00 0.00 0.00 56 1011.6
20260503001800 51 314 1.0 3.0 0.00 0.00 0.00 56 1011.6
20260503001256 51 314 0.0 2.0 0.00 0.00 0.00 55 1011.5
20260503000754 51 314 1.0 3.0 0.00 0.00 0.00 54 1011.6
20260503000255 51 315 1.0 3.0 0.00 0.00 0.00 54 1011.6
20260502235754 52 315 1.0 3.0 0.00 0.00 0.00 55 1011.5
20260502235253 52 315 1.0 3.0 0.00 0.00 0.00 54 1011.5
20260502234757 52 315 1.0 6.0 0.00 0.00 0.00 53 1011.5
20260502234256 53 315 2.0 6.0 0.00 0.00 0.00 53 1011.4
20260502233753 53 319 1.0 5.0 0.00 0.00 0.00 51 1011.3
20260502233252 53 266 2.0 6.0 0.00 0.00 0.00 52 1011.3
20260502232752 53 266 2.0 8.0 0.00 0.00 0.00 51 1011.2
20260502232253 53 344 3.0 8.0 0.00 0.00 0.00 48 1011.1
20260502232247 53 304 2.0 8.0 0.00 0.00 0.00 48 1011.3
20260502231506 54 318 3.0 9.0 0.00 0.00 0.00 48 1011.2
20260502230744 54 348 3.0 9.0 0.00 0.00 0.00 48 1011.2
20260502230246 54 335 3.0 8.0 0.00 0.00 0.00 47 1011.2
20260502225745 54 238 3.0 6.0 0.00 0.00 0.00 47 1011.2
20260502225245 54 326 2.0 5.0 0.00 0.00 0.00 48 1011.2
20260502224745 54 323 2.0 5.0 0.00 0.00 0.00 48 1011.3
20260502224245 54 339 2.0 5.0 0.00 0.00 0.00 49 1011.3
20260502223744 55 340 3.0 9.0 0.00 0.00 0.00 47 1011.3
20260502223246 55 338 3.0 9.0 0.00 0.00 0.00 45 1011.2
20260502222745 55 310 3.0 11.0 0.00 0.00 0.00 46 1011.3
20260502222247 55 296 4.0 11.0 0.00 0.00 0.00 46 1011.3
20260502221745 55 322 5.0 12.0 0.00 0.00 0.00 45 1011.2
20260502221243 55 336 5.0 12.0 0.00 0.00 0.00 45 1011.1
20260502220743 56 349 4.0 10.0 0.00 0.00 0.00 44 1011.2
20260502220245 56 295 5.0 10.0 0.00 0.00 0.00 45 1011.1
20260502220005 56 340 5.0 10.0 0.00 0.00 0.00 43 1011.2
20260502215725 56 331 6.0 11.0 0.00 0.00 0.00 42 1011.1
20260502214729 56 73 5.0 13.0 0.00 0.00 0.00 44 1011.2
20260502214224 56 317 3.0 13.0 0.00 0.00 0.00 45 1011.2
20260502213725 56 341 4.0 10.0 0.00 0.00 0.00 45 1011.1
20260502213223 56 262 4.0 10.0 0.00 0.00 0.00 44 1011.1
20260502212721 56 317 4.0 11.0 0.00 0.00 0.00 44 1011.0
20260502212219 57 338 5.0 17.0 0.00 0.00 0.00 41 1010.9
20260502211716 58 319 5.0 17.0 0.00 0.00 0.00 41 1010.9
20260502211437 58 339 5.0 13.0 0.00 0.00 0.00 43 1010.9
20260502210716 57 355 5.0 13.0 0.00 0.00 0.00 44 1010.8
20260502210216 58 341 5.0 12.0 0.00 0.00 0.00 40 1010.8
20260502205830 58 256 5.0 13.0 0.00 0.00 0.00 42 1010.7
20260502205213 57 336 5.0 13.0 0.00 0.00 0.00 45 1010.8
20260502204715 57 339 4.0 10.0 0.00 0.00 0.00 44 1010.7
20260502204434 58 279 3.0 11.0 0.00 0.00 0.00 44 1010.7
20260502203717 58 325 3.0 11.0 0.00 0.00 0.00 43 1010.7
20260502203212 58 250 3.0 10.0 0.00 0.00 0.00 41 1010.6
20260502202715 60 261 4.0 10.0 0.00 0.00 0.00 43 1010.7
20260502202212 59 304 3.0 9.0 0.00 0.00 0.00 43 1010.8
20260502201714 58 269 3.0 8.0 0.00 0.00 0.00 43 1010.7
20260502201209 58 303 4.0 10.0 0.00 0.00 0.00 42 1010.8
20260502200715 58 266 5.0 13.0 0.00 0.00 0.00 39 1010.9
20260502200211 60 0 5.0 13.0 0.00 0.00 0.00 39 1010.8
20260502195702 59 300 6.0 13.0 0.00 0.00 0.00 45 1010.9
20260502195156 58 345 5.0 13.0 0.00 0.00 0.00 42 1011.0
20260502195135 58 0 4.0 10.0 0.00 0.00 0.00 44 1011.0
20260502194146 57 252 4.0 8.0 0.00 0.00 0.00 42 1011.1
20260502193638 57 252 5.0 10.0 0.00 0.00 0.00 42 1011.2
20260502193354 59 262 5.0 13.0 0.00 0.00 0.00 39 1011.2
20260502192845 60 0 5.0 13.0 0.00 0.00 0.00 44 1011.3
20260502192121 58 330 5.0 12.0 0.00 0.00 0.00 40 1011.5
20260502191634 59 314 5.0 12.0 0.00 0.00 0.00 42 1011.5
20260502191108 60 301 6.0 14.0 0.00 0.00 0.00 44 1011.7
20260502190602 61 327 4.0 14.0 0.00 0.00 0.00 47 1011.7
20260502190111 60 350 3.0 8.0 0.00 0.00 0.00 43 1011.7
20260502185552 58 250 4.0 10.0 0.00 0.00 0.00 42 1011.8
20260502185047 60 310 5.0 12.0 0.00 0.00 0.00 44 1011.9
20260502184540 58 315 6.0 12.0 0.00 0.00 0.00 43 1012.0
20260502184032 59 309 5.0 14.0 0.00 0.00 0.00 46 1012.1
20260502183528 60 330 4.0 12.0 0.00 0.00 0.00 40 1012.1
20260502183021 61 285 4.0 10.0 0.00 0.00 0.00 50 1012.1
20260502182517 58 344 4.0 9.0 0.00 0.00 0.00 48 1012.2
20260502182009 58 313 3.0 8.0 0.00 0.00 0.00 45 1012.2
20260502181729 57 343 3.0 12.0 0.00 0.00 0.00 41 1012.3
20260502180956 58 257 3.0 12.0 0.00 0.00 0.00 53 1012.3
20260502180452 57 355 3.0 10.0 0.00 0.00 0.00 45 1012.2
20260502164316 56 12 5.0 10.0 0.00 0.00 0.00 53 1012.7
20260502163810 56 345 5.0 10.0 0.00 0.00 0.00 56 1012.8
20260502163304 56 323 5.0 11.0 0.00 0.00 0.00 55 1012.8
20260502162757 55 0 5.0 11.0 0.00 0.00 0.00 54 1012.8
20260502162515 56 345 4.0 10.0 0.00 0.00 0.00 51 1012.9
20260502162011 55 27 4.0 9.0 0.00 0.00 0.00 56 1013.1
20260502161238 55 267 4.0 10.0 0.00 0.00 0.00 57 1013.2
20260502160734 55 327 4.0 10.0 0.00 0.00 0.00 58 1013.2
20260502160230 55 292 3.0 8.0 0.00 0.00 0.00 61 1013.1
20260502152156 53 324 4.0 8.0 0.00 0.00 0.00 59 1013.3
20260502151656 53 260 3.0 8.0 0.00 0.00 0.00 63 1013.3
20260502151157 52 355 5.0 11.0 0.00 0.00 0.00 62 1013.2
20260502150916 52 25 6.0 11.0 0.00 0.00 0.00 61 1013.2
20260502150156 53 23 5.0 11.0 0.00 0.00 0.00 60 1013.3
20260502130645 48 355 4.0 11.0 0.00 0.00 0.00 76 1013.2
20260502130151 47 327 4.0 12.0 0.00 0.00 0.00 76 1013.3
20260502123644 47 324 4.0 11.0 0.00 0.00 0.00 77 1013.3
20260502123145 47 27 5.0 11.0 0.00 0.00 0.00 78 1013.2
20260502122643 47 329 5.0 11.0 0.00 0.00 0.00 78 1013.2
20260502122146 47 312 5.0 11.0 0.00 0.00 0.00 78 1013.1
20260502121641 47 331 3.0 11.0 0.00 0.00 0.00 78 1013.2
20260502121357 46 265 4.0 14.0 0.00 0.00 0.00 79 1013.2
20260502120640 46 346 6.0 14.0 0.00 0.00 0.00 79 1013.1
20260502120140 46 329 6.0 13.0 0.00 0.00 0.00 79 1013.2
20260502115905 46 320 5.0 13.0 0.00 0.00 0.00 79 1013.2
20260502115139 46 338 5.0 12.0 0.00 0.00 0.00 80 1013.2
20260502114959 46 328 5.0 13.0 0.00 0.00 0.00 80 1013.1
20260502114934 46 308 5.0 13.0 0.00 0.00 0.00 80 1013.2
20260502113641 46 326 5.0 12.0 0.00 0.00 0.00 80 1013.1
20260502113139 46 348 6.0 12.0 0.00 0.00 0.00 80 1013.1
20260502112640 46 303 6.0 13.0 0.00 0.00 0.00 81 1013.1
20260502112139 46 323 5.0 13.0 0.00 0.00 0.00 81 1013.1
20260502111639 46 310 5.0 15.0 0.00 0.00 0.00 81 1012.9
20260502111139 46 355 6.0 15.0 0.00 0.00 0.00 81 1012.8
20260502110640 46 323 5.0 15.0 0.00 0.00 0.00 82 1012.8
20260502110138 47 275 3.0 9.0 0.00 0.00 0.00 82 1012.7
20260502105638 47 293 3.0 10.0 0.00 0.00 0.00 84 1012.6
20260502105138 47 319 4.0 10.0 0.00 0.00 0.00 84 1012.6
20260502104631 47 331 4.0 12.0 0.00 0.00 0.00 84 1012.4
20260502104125 47 281 3.0 12.0 0.00 0.00 0.00 84 1012.3
20260502103849 47 302 3.0 10.0 0.00 0.00 0.00 84 1012.3
20260502103114 47 314 2.0 9.0 0.00 0.00 0.00 84 1012.3
20260502102611 47 344 3.0 9.0 0.00 0.00 0.00 83 1012.2
20260502102241 47 252 3.0 9.0 0.00 0.00 0.00 82 1012.2
20260502101834 47 285 3.0 9.0 0.00 0.00 0.00 82 1012.1
20260502101113 47 269 2.0 9.0 0.00 0.00 0.00 82 1012.1
20260502100610 47 300 2.0 7.0 0.00 0.00 0.00 81 1012.1
20260502100326 48 278 3.0 11.0 0.00 0.00 0.00 81 1012.1
20260502091108 49 257 2.0 8.0 0.00 0.00 0.00 86 1012.0
20260502090603 48 258 2.0 8.0 0.00 0.00 0.00 87 1011.9
20260502090104 48 267 2.0 6.0 0.00 0.00 0.00 87 1012.0
20260502071400 50 327 0.0 2.0 0.00 0.00 0.00 85 1011.5
20260502071113 50 327 0.0 2.0 0.00 0.00 0.00 85 1011.5
20260502070346 50 327 0.0 2.0 0.00 0.00 0.00 85 1011.6
20260502065841 50 327 0.0 0.0 0.00 0.00 0.00 85 1011.6
20260502065334 50 327 0.0 1.0 0.00 0.00 0.00 84 1011.6
20260502064827 50 327 0.0 1.0 0.00 0.00 0.00 84 1011.7
20260502064540 51 327 0.0 2.0 0.00 0.00 0.00 84 1011.7
20260502063829 51 327 0.0 2.0 0.00 0.00 0.00 84 1011.8
20260502063309 51 327 1.0 3.0 0.00 0.00 0.00 84 1011.7
20260502062816 51 327 0.0 3.0 0.00 0.00 0.00 83 1011.7
20260502062256 51 327 0.0 3.0 0.00 0.00 0.00 83 1011.7
20260502061751 51 327 0.0 3.0 0.00 0.00 0.00 83 1011.6
20260502061245 51 327 2.0 8.0 0.00 0.00 0.00 83 1011.7
20260502060751 51 328 3.0 8.0 0.00 0.00 0.00 83 1011.6
20260502060235 51 333 2.0 5.0 0.00 0.00 0.00 84 1011.9
20260502055728 51 263 1.0 3.0 0.00 0.00 0.00 84 1011.9
20260502055453 51 262 1.0 5.0 0.00 0.00 0.00 84 1011.9
20260502054715 51 251 2.0 6.0 0.00 0.00 0.00 84 1012.0
20260502054211 51 271 2.0 4.0 0.00 0.00 0.00 85 1011.9
20260502053704 50 241 1.0 4.0 0.00 0.00 0.00 85 1011.9
20260502053157 50 258 0.0 4.0 0.00 0.00 0.00 85 1011.9
20260502052652 50 142 0.0 0.0 0.00 0.00 0.00 86 1012.0
20260502052155 51 142 0.0 0.0 0.00 0.00 0.00 86 1012.0
20260502051653 51 142 0.0 0.0 0.00 0.00 0.00 85 1012.0
20260502051153 51 142 0.0 0.0 0.00 0.00 0.00 85 1011.9
20260502050702 51 142 0.0 0.0 0.00 0.00 0.00 85 1012.2
20260502050147 51 142 0.0 0.0 0.00 0.00 0.00 85 1012.3
20260502045652 51 142 0.0 0.0 0.00 0.00 0.00 85 1012.2
20260502045408 51 142 0.0 0.0 0.00 0.00 0.00 85 1012.1
20260502044649 51 142 0.0 0.0 0.00 0.00 0.00 85 1012.1
20260502044150 51 142 0.0 0.0 0.00 0.00 0.00 85 1011.9
20260502043645 52 142 0.0 0.0 0.00 0.00 0.00 84 1011.9
20260502043145 52 142 0.0 0.0 0.00 0.00 0.00 84 1011.9
20260502042640 52 142 0.0 0.0 0.00 0.00 0.00 83 1011.9
20260502042141 52 142 0.0 0.0 0.00 0.00 0.00 83 1012.1
20260502041859 52 142 0.0 0.0 0.00 0.00 0.00 83 1012.0
20260502041140 52 142 0.0 0.0 0.00 0.00 0.00 83 1011.7
20260502040649 52 142 0.0 0.0 0.00 0.00 0.00 83 1011.8
20260502040139 52 142 0.0 0.0 0.00 0.00 0.00 82 1011.8
20260502040120 52 142 0.0 0.0 0.00 0.00 0.00 82 1011.8